Flag for Russia Weather past 2 weeks in Kazan, Russia

Now
70 °F

Passing clouds.


Feels Like: 70 °F
Forecast: 58 / 71 °F
Wind: 10 mph from Northwest

Location: Kazan'

Current Time: May 24, 2015 at 3:28:24 PM

Latest Report: May 24, 2015 at 2:30 PM


Visibility: N/A

Pressure: 29.98 "Hg

Humidity: 46%

Dew point: 48 °F

Location of KazanLocation

Historic Weather in Kazan — Graph

°F

Kazan temperature yesterday

Maximum temperature yesterday: 81 °F (at 1:30 PM)
Minimum temperature yesterday: 57 °F (at 12:30 AM)
Average temperature yesterday: 70 °F

Past Weeks' High & Low Weather Summary

 TemperatureHumidityPressure
High81 °F (May 23, 1:30 PM)100% (May 18, 4:00 PM)30.18 "Hg (May 18, 4:00 PM)
Low41 °F (May 11, 3:00 AM)22% (May 10, 2:30 PM)29.33 "Hg (May 18, 1:30 AM)
Average58 °F64%29.82 "Hg
* Reported May 9 2:00 PM — May 24 2:30 PM, Kazan, Weather by CustomWeather, © 2015

Note: Actual official high and low records may vary slightly from our data, if they occured in-between our weather recording intervals... More about our weather records

Advertising

Kazan weather history for previous 24 hours

 ConditionsComfort  
Time TempWeatherWind HumidityBarometerVisibility
2:30 PM
Sun, May 24
70 °FPassing clouds.10 mph46%29.98 "HgN/A
2:00 PM70 °FPassing clouds.10 mph46%29.98 "HgN/A
1:30 PM68 °FPassing clouds.10 mph49%29.98 "HgN/A
1:00 PM68 °FPassing clouds.13 mph49%29.98 "HgN/A
12:30 PM68 °FPassing clouds.8 mph53%29.98 "HgN/A
12:00 PM68 °FPassing clouds.10 mph53%29.98 "HgN/A
11:30 AM66 °FPassing clouds.10 mph56%29.98 "HgN/A
11:00 AM66 °FPassing clouds.13 mph52%29.98 "HgN/A
10:30 AM64 °FPassing clouds.10 mph60%29.98 "HgN/A
10:00 AM64 °FPassing clouds.10 mph60%29.98 "HgN/A
9:30 AM63 °FScattered clouds.13 mph68%29.98 "HgN/A
9:00 AM63 °FScattered clouds.13 mph68%29.98 "HgN/A
8:30 AM63 °FScattered clouds.13 mph73%29.95 "HgN/A
8:00 AM63 °FPartly sunny.13 mph73%29.95 "HgN/A
7:30 AM61 °FPartly sunny.13 mph77%29.95 "HgN/A
7:00 AM61 °FPartly sunny.13 mph77%29.95 "HgN/A
6:30 AM61 °FPartly sunny.13 mph83%29.95 "HgN/A
6:00 AM61 °FPartly sunny.10 mph83%29.95 "HgN/A
5:30 AM61 °FPartly sunny.10 mph83%29.92 "HgN/A
5:00 AM61 °FScattered clouds.8 mph88%29.92 "HgN/A
4:30 AM61 °FScattered clouds.10 mph88%29.92 "HgN/A
4:00 AM61 °FClear.8 mph88%29.92 "Hg5 mi
3:30 AM61 °FClear.10 mph88%29.89 "Hg10 mi
3:00 AM61 °FClear.10 mph88%29.89 "Hg10 mi
2:30 AM63 °FClear.8 mph83%29.89 "Hg10 mi
2:00 AM63 °FClear.8 mph83%29.89 "Hg10 mi
1:30 AM63 °FClear.8 mph83%29.89 "Hg10 mi
1:00 AM63 °FClear.6 mph83%29.89 "Hg10 mi
12:30 AM64 °FPassing clouds.6 mph78%29.89 "HgN/A
12:00 AM64 °FPassing clouds.3 mph73%29.89 "HgN/A
11:30 PM
Sat, May 23
64 °FPassing clouds.No wind73%29.89 "HgN/A
11:00 PM66 °FPassing clouds.6 mph64%29.89 "HgN/A
10:30 PM64 °FPassing clouds.10 mph73%29.89 "HgN/A
10:00 PM64 °FPassing clouds.8 mph73%29.86 "HgN/A
9:30 PM64 °FPassing clouds.8 mph73%29.86 "HgN/A
9:00 PM64 °FScattered clouds.8 mph73%29.86 "HgN/A
8:30 PM64 °FScattered clouds.8 mph73%29.89 "HgN/A
8:00 PM68 °FScattered clouds.8 mph64%29.89 "HgN/A
7:30 PM70 °FSunny.6 mph64%29.89 "Hg10 mi
7:00 PM73 °FScattered clouds.1 mph57%29.89 "HgN/A
6:30 PM75 °FScattered clouds.3 mph47%29.89 "HgN/A
6:00 PM75 °FScattered clouds.13 mph47%29.89 "HgN/A
5:30 PM77 °FScattered clouds.8 mph42%29.89 "HgN/A
5:00 PM77 °FScattered clouds.8 mph42%29.89 "HgN/A
4:30 PM75 °FScattered clouds.10 mph44%29.92 "HgN/A
4:00 PM79 °FScattered clouds.10 mph45%29.92 "HgN/A
3:30 PM79 °FScattered clouds.10 mph42%29.92 "HgN/A
3:00 PM81 °FSunny.13 mph42%29.92 "Hg10 mi
Weather by CustomWeather, © 2015

See weather overviewHow to use our weather pages